Weather in Mastakh

Russia / Sakha (Yakutia) Republic     63°43′19″N   124°11′32″E
temp.,
°C
wind,
m/s
gust,
m/s
humid.,
%
clouds,
%
prec.,
mm/h
press.,
hPa
HPBL,
m
5 march, fri
fri500:00−37wnw339884 0.0 102733
03:00−37w339772 0.0 102963
06:00−38w359845 0.0 102984
09:00−36w489544 0.0 1030277
12:00−31w369367 0.0 1030384
15:00−28w469281 0.0 1030484
18:00−31w2397100 0.0 103019
21:00−33w239750 0.0 103019
6 march, sat
sat600:00−34w22980 0.0 103019
03:00−35w121000 0.0 102919
06:00−36wsw111000 0.0 102819
09:00−33s12970 0.0 102722
12:00−25sse129025 0.0 1025265
15:00−22se238746 0.0 1023378
18:00−25ese359239 0.0 102275
21:00−26ese369361 0.0 1021122
7 march, sun
sun700:00−26ese469398 0.0 1019120
03:00−24ese479397 0.0 1018181
06:00−24ese4896100 0.1 1017242
09:00−24ese4897100 0.3 1016260
12:00−21ese5797100 0.2 1014328
15:00−20ese5796100 0.4 1012315
18:00−22e5896100 0.1 1011242
21:00−23ese5997100 0.2 1009244
8 march, mon
mon800:00−24ese61097100 0.2 1007282
03:00−25ese61196100 0.4 1005304
06:00−26ese61096100 0.3 1004313
09:00−26ese61097100 0.6 1004306
12:00−24ese5896100 0.3 1003314
15:00−22ese4696100 0.4 1004307
18:00−22e2497100 0.1 1006227
21:00−23ese119899 0.2 100826
9 march, tue
tue900:00−25sw019989 0.1 100920
03:00−24w129890 0.1 101020
06:00−23wsw129889 0.1 101123
09:00−20ssw229884 0.1 101194
12:00−13sw259397 0.1 1010419
15:00−10sw479198 0.2 1009521
18:00−10s489498 0.1 1007320
21:00−11s389398 0.2 1005208